Hourly Data Report for October 01, 2016

All times are specified in Local Standard Time (LST). Add 1 hour to adjust for Daylight Saving Time where and when it is observed.

WINNIPEG A CS
MANITOBA

49°55'00.000" N
97°14'58.000" W
238.70 m
502S001
71849
XWG

Download Data

Hourly Data (October 2016)
Hourly Data Report for October 1, 2016
Temp Definition
°C
Dew Point Temp Definition
°C
Rel Hum Definition
%
Wind Dir Definition
10's deg

Wind Spd Definition
km/h
Visibility Definition
km
Stn Press Definition
kPa
Hmdx Definition


Wind Chill Definition


Weather Definition


TIME
00:00 13.9 10.8 81 15 16   99.31     LegendNANA
01:00 13.4 10.7 84 15 14   99.31     LegendNANA
02:00 13.3 10.5 83 15 16   99.30     LegendNANA
03:00 13.4 10.3 81 16 14   99.30     LegendNANA
04:00 13.4 10.3 81 15 17   99.26     LegendNANA
05:00 12.8 10.2 84 15 15   99.22     LegendNANA
06:00 11.6 9.2 85 15 14   99.22     LegendNANA
07:00 12.2 9.5 83 14 16   99.22     LegendNANA
08:00 13.3 9.6 78 15 14   99.23     LegendNANA
09:00 14.8 10.2 74 16 17   99.22     LegendNANA
10:00 15.6 10.1 70 16 16   99.19     LegendNANA
11:00 18.2 11.1 63 16 17   99.19     LegendNANA
12:00 19.9 10.6 55 15 14   99.14     LegendNANA
13:00 21.3 9.6 47 15 22   99.06     LegendNANA
14:00 21.7 9.8 47 15 17   99.02     LegendNANA
15:00 22.1 9.3 44 15 19   98.99     LegendNANA
16:00 20.7 9.8 49 16 16   98.98     LegendNANA
17:00 18.9 10.5 58 16 12   98.97     LegendNANA
18:00 16.8 10.0 64 15 8   98.96     LegendNANA
19:00 16.0 9.8 67 16 5   98.96     LegendNANA
20:00 14.6 9.2 70 12 4   98.98     LegendNANA
21:00 15.2 10.3 73 13 14   98.95     LegendNANA
22:00 14.4 10.8 79 14 16   98.95     LegendNANA
23:00 14.1 10.5 79 14 13   98.95     LegendNANA

Notes on Data Quality.

Legend

  • E = Estimated
  • M = Missing
  • NA = Not Available
  • ‡ = Partner data that is not subject to review by the National Climate Archives
Date modified: